This demonstration page uses our WeatherBlox Daily Observations layout. Learn more.

Hourly Observations for April 9, 2017

Temp ( °F °C ) Dew Point ( °F °C ) Humidity (%) Winds ( mph kmh ) Pressure ( in mb ) Visibility ( mi km ) Precip ( " mm )
12:15 am 00:15 Clear 51 10.6 45 7.1 79 79 ESE 5 7 29.5 999 10 16.0934 0 0
12:35 am 00:35 Clear 52 11 45 7.1 77 77 Calm 29.5 999 10 16.0934 0 0
12:55 am 00:55 Clear 52 11.3 45 7.4 77 77 S 3 6 29.47 998 10 16.0934 0 0
1:15 am 01:15 Clear 53 11.4 45 7.4 77 77 Calm 29.47 998 10 16.0934 0 0
1:35 am 01:35 Clear 54 12 46 7.5 74 74 S 3 6 29.47 998 10 16.0934 0 0
1:55 am 01:55 Clear 56 13.1 46 7.7 70 70 S 6 9 29.44 997 10 16.0934 0 0
2:15 am 02:15 Clear 55 12.9 46 7.9 72 72 S 7 11 29.44 997 10 16.0934 0 0
2:35 am 02:35 Clear 52 11.1 45 7.3 78 78 Calm 29.44 997 10 16.0934 0 0
2:55 am 02:55 Clear 53 11.7 46 7.7 77 77 S 6 9 29.44 997 10 16.0934 0 0
3:15 am 03:15 Clear 54 12.3 47 8.1 76 76 S 8 13 29.44 997 10 16.0934 0 0
3:35 am 03:35 Clear 53 11.7 46 7.9 78 78 S 9 15 29.41 996 10 16.0934 0 0
3:55 am 03:55 Clear 52 11.3 46 8 80 80 S 7 11 29.41 996 10 16.0934 0 0
4:15 am 04:15 Clear 52 11.2 47 8.3 83 83 S 9 15 29.41 996 10 16.0934 0 0
4:35 am 04:35 Clear 52 11 47 8.2 83 83 S 9 15 29.41 996 10 16.0934 0 0
4:55 am 04:55 Clear 51 10.5 46 8 85 85 S 9 15 29.44 997 10 16.0934 0 0
5:15 am 05:15 Clear 52 11.1 45 7.1 77 77 SW 7 11 29.41 996 10 16.0934 0 0
5:35 am 05:35 Clear 53 11.4 43 5.9 69 69 WSW 3 6 29.41 996 10 16.0934 0 0
5:55 am 05:55 Clear 51 10.5 42 5.3 70 70 W 6 9 29.44 997 10 16.0934 0 0
6:15 am 06:15 Clear 48 9 41 4.9 76 76 Calm 29.44 997 10 16.0934 0 0
6:35 am 06:35 Clear 48 8.8 40 4.6 75 75 W 5 7 29.47 998 10 16.0934 0 0
6:55 am 06:55 Clear 47 8.4 41 5 79 79 W 6 9 29.47 998 10 16.0934 0 0
7:15 am 07:15 Sunny 47 8.1 42 5.5 84 84 NW 8 13 29.47 998 10 16.0934 0 0
7:35 am 07:35 Sunny 44 6.5 41 5 90 90 NW 9 15 29.5 999 10 16.0934 0 0
7:55 am 07:55 Sunny 46 8 44 6.8 92 92 NNW 10 17 29.47 998 10 16.0934 0 0
8:15 am 08:15 Sunny 49 9.4 46 7.9 90 90 N 7 11 29.47 998 10 16.0934 0 0
8:35 am 08:35 Partly Cloudy 51 10.6 47 8.6 88 88 NNW 8 13 29.5 999 10 16.0934 0 0
8:55 am 08:55 Mostly Cloudy 52 11.1 48 9 87 87 N 7 11 29.5 999 10 16.0934 0 0
9:15 am 09:15 Cloudy 53 11.5 48 9 85 85 N 7 11 29.5 999 10 16.0934 0 0
9:35 am 09:35 Cloudy 53 11.9 49 9.3 84 84 N 9 15 29.5 999 10 16.0934 0 0
9:55 am 09:55 Cloudy 53 11.9 49 9.2 84 84 NNW 12 19 29.5 999 10 16.0934 0 0
10:15 am 10:15 Cloudy 54 12.4 49 9.4 82 82 NNW 10 17 29.5 999 10 16.0934 0 0
10:35 am 10:35 Cloudy 56 13.2 49 9.5 78 78 NW 12 19 29.5 999 10 16.0934 0 0
10:55 am 10:55 Cloudy 57 14.1 50 9.8 76 76 NW 12 19 29.5 999 10 16.0934 0 0
11:15 am 11:15 Cloudy 59 15.1 51 10.3 73 73 NNW 12 19 29.47 998 10 16.0934 0 0
11:35 am 11:35 Mostly Cloudy 61 16 50 9.9 67 67 NNW 13 20 29.5 999 10 16.0934 0 0
11:55 am 11:55 Mostly Cloudy 63 17 50 9.8 63 63 NW 15 24 29.5 999 10 16.0934 0 0
12:15 pm 12:15 Partly Cloudy 64 17.5 49 9.5 60 60 NW 16 26 29.47 998 10 16.0934 0 0
12:35 pm 12:35 Sunny 64 18 49 9.7 59 59 NW 16 26 29.5 999 10 16.0934 0 0
12:55 pm 12:55 Sunny 66 19 50 10 56 56 N 13 20 29.44 997 10 16.0934 0 0
1:15 pm 13:15 Sunny 66 19 50 10.2 57 57 NNW 13 20 29.44 997 10 16.0934 0 0
1:35 pm 13:35 Sunny 66 19.1 50 9.8 55 55 N 15 24 29.44 997 10 16.0934 0 0
1:55 pm 13:55 Sunny 67 19.2 51 10.3 57 57 N 12 19 29.44 997 10 16.0934 0 0
2:15 pm 14:15 Partly Cloudy 68 20.2 51 10.3 53 53 NNW 10 17 29.44 997 10 16.0934 0 0
2:35 pm 14:35 Sunny 68 20.1 49 9.7 51 51 N 10 17 29.44 997 10 16.0934 0 0
2:55 pm 14:55 Sunny 69 20.6 49 9.6 49 49 NNW 8 13 29.44 997 10 16.0934 0 0
3:15 pm 15:15 Sunny 69 20.7 49 9.4 48 48 N 8 13 29.44 997 10 16.0934 0 0
3:35 pm 15:35 Sunny 70 21.1 49 9.4 47 47 NNE 8 13 29.44 997 10 16.0934 0 0
3:55 pm 15:55 Sunny 70 21.1 49 9.4 47 47 ENE 5 7 29.44 997 10 16.0934 0 0
4:15 pm 16:15 Partly Cloudy 71 21.5 49 9.6 47 47 N 9 15 29.44 997 10 16.0934 0 0
4:35 pm 16:35 Mostly Cloudy 70 21.1 49 9.6 48 48 NE 5 7 29.44 997 10 16.0934 0 0
4:55 pm 16:55 Cloudy 71 21.7 49 9.6 46 46 N 5 7 29.47 998 10 16.0934 0 0
5:15 pm 17:15 Mostly Cloudy 71 21.7 48 8.7 43 43 Calm 29.44 997 10 16.0934 0 0
5:35 pm 17:35 Mostly Cloudy 69 20.7 48 8.7 46 46 NE 9 15 29.44 997 10 16.0934 0 0
5:55 pm 17:55 Cloudy with Nearby Thunderstorms 68 20.1 47 8.2 46 46 WNW 18 30 29.5 999 10 16.0934 0 0
6:15 pm 18:15 Windy with Storms Likely 47 8.4 43 6.2 86 86 NNW 26 43 29.68 1005 2.5 4.02335 0.18 4.572
6:35 pm 18:35 Partly Cloudy 51 10.8 46 7.8 82 82 NW 26 43 29.68 1005 10 16.0934 0.19 4.826
6:55 pm 18:55 Partly Cloudy 53 11.8 47 8.1 78 78 NW 29 46 29.68 1005 10 16.0934 0.19 4.826
7:15 pm 19:15 Sunny 53 11.5 45 7 74 74 NNW 22 35 29.68 1005 10 16.0934 0 0
7:35 pm 19:35 Partly Cloudy 53 11.4 43 6.3 71 71 NNW 20 31 29.68 1005 10 16.0934 0 0
7:55 pm 19:55 Mostly Cloudy 52 11 43 6 72 72 NNW 18 30 29.71 1006 10 16.0934 0 0
8:15 pm 20:15 Partly Cloudy 51 10.3 43 6 75 75 NNW 16 26 29.71 1006 10 16.0934 0 0
8:35 pm 20:35 Clear 50 9.9 42 5.8 76 76 NW 14 22 29.71 1006 10 16.0934 0 0
8:55 pm 20:55 Clear 49 9.3 42 5.7 78 78 NNW 12 19 29.77 1008 10 16.0934 0 0
9:15 pm 21:15 Clear 48 9 42 5.7 80 80 NNW 7 11 29.77 1008 10 16.0934 0 0
9:35 pm 21:35 Clear 47 8.6 42 5.7 82 82 NNW 7 11 29.8 1009 10 16.0934 0 0
9:55 pm 21:55 Clear 46 8 42 5.5 84 84 NNW 5 7 29.8 1009 10 16.0934 0 0
10:15 pm 22:15 Clear 44 6.9 41 5 88 88 NW 6 9 29.83 1010 10 16.0934 0 0
10:35 pm 22:35 Clear 44 6.6 41 5.1 90 90 NW 6 9 29.83 1010 10 16.0934 0 0
10:55 pm 22:55 Clear 44 6.5 41 5 90 90 WNW 5 7 29.83 1010 10 16.0934 0 0
11:15 pm 23:15 Clear 44 6.7 41 4.9 88 88 WNW 6 9 29.83 1010 10 16.0934 0 0
11:35 pm 23:35 Clear 44 6.6 40 4.5 87 87 WNW 7 11 29.83 1010 10 16.0934 0 0
11:55 pm 23:55 Clear 44 6.4 40 4.4 87 87 WNW 6 9 29.83 1010 10 16.0934 0 0

Powered by AerisWeather